Time,TemperatureF,DewpointF,PressureIn,WindDirection,WindDirectionDegrees,WindSpeedMPH,WindSpeedGustMPH,Humidity,HourlyPrecipIn,Conditions,Clouds,dailyrainin,SoftwareType,DateUTC
2013-02-05 00:00:00,11.1,2.6,29.96,NW,315,0.0,2.0,68,0.00,,,0.00,VWS V14.01,2013-02-05 05:00:00,
2013-02-05 00:05:00,10.9,2.7,29.96,NW,315,0.0,1.0,69,0.00,,,0.00,VWS V14.01,2013-02-05 05:05:00,
2013-02-05 00:10:00,10.8,2.6,29.96,NW,315,0.0,1.0,69,0.00,,,0.00,VWS V14.01,2013-02-05 05:10:00,
2013-02-05 00:15:00,10.7,2.5,29.96,NW,315,0.0,0.0,69,0.00,,,0.00,VWS V14.01,2013-02-05 05:15:00,
2013-02-05 00:20:00,10.6,2.1,29.96,NW,315,1.0,2.0,68,0.00,,,0.00,VWS V14.01,2013-02-05 05:20:00,
2013-02-05 00:25:00,10.6,2.1,29.96,NW,315,1.0,2.0,68,0.00,,,0.00,VWS V14.01,2013-02-05 05:25:00,
2013-02-05 00:30:00,10.7,2.5,29.96,NW,315,0.0,2.0,69,0.00,,,0.00,VWS V14.01,2013-02-05 05:30:00,
2013-02-05 00:35:00,10.6,2.5,29.96,NW,315,1.0,3.0,69,0.00,,,0.00,VWS V14.01,2013-02-05 05:35:00,
2013-02-05 00:40:00,10.4,2.9,29.96,NW,315,0.0,1.0,71,0.00,,,0.00,VWS V14.01,2013-02-05 05:40:00,
2013-02-05 00:45:00,10.0,2.5,29.96,NW,315,0.0,0.0,71,0.00,,,0.00,VWS V14.01,2013-02-05 05:45:00,
2013-02-05 00:50:00,9.9,2.4,29.96,NW,315,0.0,0.0,71,0.00,,,0.00,VWS V14.01,2013-02-05 05:50:00,
2013-02-05 00:55:00,9.6,2.1,29.96,NW,315,0.0,0.0,71,0.00,,,0.00,VWS V14.01,2013-02-05 05:55:00,
2013-02-05 01:00:00,9.4,1.9,29.96,NW,315,0.0,0.0,71,0.00,,,0.00,VWS V14.01,2013-02-05 06:00:00,
2013-02-05 01:05:00,9.2,2.0,29.97,NW,315,0.0,0.0,72,0.00,,,0.00,VWS V14.01,2013-02-05 06:05:00,
2013-02-05 01:10:00,8.9,2.0,29.97,NW,315,0.0,0.0,73,0.00,,,0.00,VWS V14.01,2013-02-05 06:10:00,
2013-02-05 01:15:00,8.4,1.8,29.97,NW,315,0.0,1.0,74,0.00,,,0.00,VWS V14.01,2013-02-05 06:15:00,
2013-02-05 01:20:00,8.1,1.8,29.97,NW,315,0.0,1.0,75,0.00,,,0.00,VWS V14.01,2013-02-05 06:20:00,
2013-02-05 01:25:00,8.1,1.8,29.97,NW,315,0.0,0.0,75,0.00,,,0.00,VWS V14.01,2013-02-05 06:25:00,
2013-02-05 01:30:00,8.2,1.9,29.98,NW,315,0.0,0.0,75,0.00,,,0.00,VWS V14.01,2013-02-05 06:30:00,
2013-02-05 01:35:00,8.1,1.8,29.98,NW,315,0.0,0.0,75,0.00,,,0.00,VWS V14.01,2013-02-05 06:35:00,
2013-02-05 01:40:00,7.9,1.4,29.98,NW,315,0.0,0.0,74,0.00,,,0.00,VWS V14.01,2013-02-05 06:40:00,
2013-02-05 01:45:00,7.7,1.4,29.98,NW,315,0.0,0.0,75,0.00,,,0.00,VWS V14.01,2013-02-05 06:45:00,
2013-02-05 01:50:00,7.4,1.4,29.97,NW,315,0.0,0.0,76,0.00,,,0.00,VWS V14.01,2013-02-05 06:50:00,
2013-02-05 01:55:00,7.1,1.1,29.98,NW,315,0.0,0.0,76,0.00,,,0.00,VWS V14.01,2013-02-05 06:55:00,
2013-02-05 02:00:00,7.0,1.0,29.98,NW,315,0.0,0.0,76,0.00,,,0.00,VWS V14.01,2013-02-05 07:00:00,
2013-02-05 02:05:00,6.9,1.2,29.98,NW,315,0.0,0.0,77,0.00,,,0.00,VWS V14.01,2013-02-05 07:05:00,
2013-02-05 02:10:00,6.7,1.0,29.98,NW,315,0.0,0.0,77,0.00,,,0.00,VWS V14.01,2013-02-05 07:10:00,
2013-02-05 02:15:00,6.5,1.1,29.98,NW,315,0.0,0.0,78,0.00,,,0.00,VWS V14.01,2013-02-05 07:15:00,
2013-02-05 02:20:00,6.3,0.9,29.98,NW,315,0.0,0.0,78,0.00,,,0.00,VWS V14.01,2013-02-05 07:20:00,
2013-02-05 02:25:00,6.2,0.8,29.98,NW,315,0.0,0.0,78,0.00,,,0.00,VWS V14.01,2013-02-05 07:25:00,
2013-02-05 02:30:00,6.0,0.9,29.98,NW,315,0.0,0.0,79,0.00,,,0.00,VWS V14.01,2013-02-05 07:30:00,
2013-02-05 02:35:00,5.9,0.8,29.98,NW,315,0.0,0.0,79,0.00,,,0.00,VWS V14.01,2013-02-05 07:35:00,
2013-02-05 02:40:00,5.8,0.7,29.98,NW,315,0.0,0.0,79,0.00,,,0.00,VWS V14.01,2013-02-05 07:40:00,
2013-02-05 02:45:00,5.6,0.5,29.98,NW,315,0.0,0.0,79,0.00,,,0.00,VWS V14.01,2013-02-05 07:45:00,
2013-02-05 02:50:00,5.3,0.5,29.98,NW,315,0.0,1.0,80,0.00,,,0.00,VWS V14.01,2013-02-05 07:50:00,
2013-02-05 02:55:00,5.1,0.3,29.98,NW,315,0.0,1.0,80,0.00,,,0.00,VWS V14.01,2013-02-05 07:55:00,
2013-02-05 03:00:00,5.0,0.2,29.98,NW,315,0.0,0.0,80,0.00,,,0.00,VWS V14.01,2013-02-05 08:00:00,
2013-02-05 03:05:00,4.9,0.1,29.98,NW,315,0.0,0.0,80,0.00,,,0.00,VWS V14.01,2013-02-05 08:05:00,
2013-02-05 03:10:00,4.8,0.0,29.98,NW,315,0.0,0.0,80,0.00,,,0.00,VWS V14.01,2013-02-05 08:10:00,
2013-02-05 03:15:00,4.7,-0.1,29.98,NW,315,0.0,0.0,80,0.00,,,0.00,VWS V14.01,2013-02-05 08:15:00,
2013-02-05 03:20:00,4.5,-0.3,29.98,NW,315,0.0,0.0,80,0.00,,,0.00,VWS V14.01,2013-02-05 08:20:00,
2013-02-05 03:25:00,4.3,-0.5,29.98,NW,315,0.0,1.0,80,0.00,,,0.00,VWS V14.01,2013-02-05 08:25:00,
2013-02-05 03:30:00,4.2,-0.3,29.98,NW,315,0.0,0.0,81,0.00,,,0.00,VWS V14.01,2013-02-05 08:30:00,
2013-02-05 03:35:00,4.0,-0.5,29.98,NW,315,0.0,0.0,81,0.00,,,0.00,VWS V14.01,2013-02-05 08:35:00,
2013-02-05 03:40:00,3.9,-0.6,29.99,NW,315,0.0,0.0,81,0.00,,,0.00,VWS V14.01,2013-02-05 08:40:00,
2013-02-05 03:45:00,3.7,-0.8,29.99,NW,315,0.0,0.0,81,0.00,,,0.00,VWS V14.01,2013-02-05 08:45:00,
2013-02-05 03:50:00,3.6,-0.9,29.99,NW,315,0.0,0.0,81,0.00,,,0.00,VWS V14.01,2013-02-05 08:50:00,
2013-02-05 03:55:00,3.5,-1.0,29.99,NW,315,0.0,0.0,81,0.00,,,0.00,VWS V14.01,2013-02-05 08:55:00,
2013-02-05 04:00:00,3.4,-1.1,29.99,NW,315,0.0,0.0,81,0.00,,,0.00,VWS V14.01,2013-02-05 09:00:00,
2013-02-05 04:05:00,3.3,-1.2,29.99,NW,315,0.0,0.0,81,0.00,,,0.00,VWS V14.01,2013-02-05 09:05:00,
2013-02-05 04:10:00,3.2,-1.3,29.99,NW,315,0.0,0.0,81,0.00,,,0.00,VWS V14.01,2013-02-05 09:10:00,
2013-02-05 04:15:00,3.1,-1.1,29.99,NW,315,0.0,0.0,82,0.00,,,0.00,VWS V14.01,2013-02-05 09:15:00,
2013-02-05 04:20:00,2.9,-1.3,29.99,NW,315,0.0,0.0,82,0.00,,,0.00,VWS V14.01,2013-02-05 09:20:00,
2013-02-05 04:25:00,3.0,-1.2,30.00,NW,315,0.0,0.0,82,0.00,,,0.00,VWS V14.01,2013-02-05 09:25:00,
2013-02-05 04:30:00,3.0,-1.2,30.00,NW,315,0.0,0.0,82,0.00,,,0.00,VWS V14.01,2013-02-05 09:30:00,
2013-02-05 04:35:00,3.0,-1.2,30.00,NW,315,0.0,0.0,82,0.00,,,0.00,VWS V14.01,2013-02-05 09:35:00,
2013-02-05 04:40:00,2.9,-1.3,30.00,NW,315,0.0,0.0,82,0.00,,,0.00,VWS V14.01,2013-02-05 09:40:00,
2013-02-05 04:45:00,2.9,-1.1,30.00,NW,315,0.0,0.0,83,0.00,,,0.00,VWS V14.01,2013-02-05 09:45:00,
2013-02-05 04:50:00,2.9,-1.1,30.00,NW,315,0.0,0.0,83,0.00,,,0.00,VWS V14.01,2013-02-05 09:50:00,
2013-02-05 04:55:00,3.0,-1.0,30.00,NW,315,0.0,0.0,83,0.00,,,0.00,VWS V14.01,2013-02-05 09:55:00,
2013-02-05 05:00:00,3.0,-1.0,30.00,NW,315,0.0,0.0,83,0.00,,,0.00,VWS V14.01,2013-02-05 10:00:00,
2013-02-05 05:05:00,3.1,-0.9,30.00,NW,315,0.0,0.0,83,0.00,,,0.00,VWS V14.01,2013-02-05 10:05:00,
2013-02-05 05:10:00,3.0,-1.2,30.00,NW,315,0.0,3.0,82,0.00,,,0.00,VWS V14.01,2013-02-05 10:10:00,
2013-02-05 05:15:00,3.0,-1.2,30.01,NW,315,0.0,2.0,82,0.00,,,0.00,VWS V14.01,2013-02-05 10:15:00,
2013-02-05 05:20:00,3.1,-1.4,30.00,NW,315,0.0,2.0,81,0.00,,,0.00,VWS V14.01,2013-02-05 10:20:00,
2013-02-05 05:25:00,3.2,-1.3,30.00,NW,315,0.0,2.0,81,0.00,,,0.00,VWS V14.01,2013-02-05 10:25:00,
2013-02-05 05:30:00,3.1,-1.7,30.01,NW,315,0.0,3.0,80,0.00,,,0.00,VWS V14.01,2013-02-05 10:30:00,
2013-02-05 05:35:00,3.0,-1.8,30.00,NW,315,0.0,0.0,80,0.00,,,0.00,VWS V14.01,2013-02-05 10:35:00,
2013-02-05 05:40:00,2.9,-1.9,30.00,NW,315,0.0,0.0,80,0.00,,,0.00,VWS V14.01,2013-02-05 10:40:00,
2013-02-05 05:45:00,2.8,-2.0,30.00,NW,315,0.0,0.0,80,0.00,,,0.00,VWS V14.01,2013-02-05 10:45:00,
2013-02-05 05:50:00,2.7,-2.0,30.01,NW,315,0.0,1.0,80,0.00,,,0.00,VWS V14.01,2013-02-05 10:50:00,
2013-02-05 05:55:00,2.6,-2.2,30.01,NW,315,0.0,1.0,80,0.00,,,0.00,VWS V14.01,2013-02-05 10:55:00,
2013-02-05 06:00:00,2.5,-2.2,30.01,NW,315,0.0,1.0,80,0.00,,,0.00,VWS V14.01,2013-02-05 11:00:00,
2013-02-05 06:05:00,2.5,-2.2,30.01,NW,315,0.0,0.0,80,0.00,,,0.00,VWS V14.01,2013-02-05 11:05:00,
2013-02-05 06:10:00,2.5,-2.2,30.01,NW,315,0.0,0.0,80,0.00,,,0.00,VWS V14.01,2013-02-05 11:10:00,
2013-02-05 06:15:00,2.3,-2.4,30.01,NW,315,0.0,0.0,80,0.00,,,0.00,VWS V14.01,2013-02-05 11:15:00,
2013-02-05 06:20:00,2.3,-2.4,30.01,NW,315,0.0,0.0,80,0.00,,,0.00,VWS V14.01,2013-02-05 11:20:00,
2013-02-05 06:25:00,2.2,-2.5,30.02,NW,315,0.0,0.0,80,0.00,,,0.00,VWS V14.01,2013-02-05 11:25:00,
2013-02-05 06:30:00,2.2,-2.5,30.02,NW,315,0.0,0.0,80,0.00,,,0.00,VWS V14.01,2013-02-05 11:30:00,
2013-02-05 06:35:00,2.3,-2.4,30.02,NW,315,0.0,0.0,80,0.00,,,0.00,VWS V14.01,2013-02-05 11:35:00,
2013-02-05 06:40:00,2.3,-2.2,30.02,NW,315,0.0,2.0,81,0.00,,,0.00,VWS V14.01,2013-02-05 11:40:00,
2013-02-05 06:45:00,2.3,-2.2,30.03,NW,315,0.0,0.0,81,0.00,,,0.00,VWS V14.01,2013-02-05 11:45:00,
2013-02-05 06:50:00,2.4,-2.1,30.03,NW,315,0.0,0.0,81,0.00,,,0.00,VWS V14.01,2013-02-05 11:50:00,
2013-02-05 06:55:00,2.4,-2.1,30.03,NW,315,0.0,0.0,81,0.00,,,0.00,VWS V14.01,2013-02-05 11:55:00,
2013-02-05 07:00:00,2.4,-2.1,30.03,NW,315,0.0,0.0,81,0.00,,,0.00,VWS V14.01,2013-02-05 12:00:00,
2013-02-05 07:05:00,2.4,-2.1,30.04,NW,315,0.0,0.0,81,0.00,,,0.00,VWS V14.01,2013-02-05 12:05:00,
2013-02-05 07:10:00,2.4,-2.1,30.04,NW,315,0.0,0.0,81,0.00,,,0.00,VWS V14.01,2013-02-05 12:10:00,
2013-02-05 07:15:00,2.4,-2.1,30.04,NW,315,0.0,0.0,81,0.00,,,0.00,VWS V14.01,2013-02-05 12:15:00,
2013-02-05 07:20:00,2.5,-2.0,30.04,NW,315,0.0,0.0,81,0.00,,,0.00,VWS V14.01,2013-02-05 12:20:00,
2013-02-05 07:25:00,2.6,-2.2,30.05,NW,315,0.0,0.0,80,0.00,,,0.00,VWS V14.01,2013-02-05 12:25:00,
2013-02-05 07:30:00,2.7,-2.0,30.05,NW,315,0.0,0.0,80,0.00,,,0.00,VWS V14.01,2013-02-05 12:30:00,
2013-02-05 07:35:00,2.7,-2.0,30.05,NW,315,0.0,0.0,80,0.00,,,0.00,VWS V14.01,2013-02-05 12:35:00,
2013-02-05 07:40:00,2.7,-2.0,30.05,NW,315,0.0,0.0,80,0.00,,,0.00,VWS V14.01,2013-02-05 12:40:00,
2013-02-05 07:45:00,2.7,-2.0,30.05,NW,315,0.0,0.0,80,0.00,,,0.00,VWS V14.01,2013-02-05 12:45:00,
2013-02-05 07:50:00,2.7,-2.0,30.06,NW,315,0.0,0.0,80,0.00,,,0.00,VWS V14.01,2013-02-05 12:50:00,
2013-02-05 07:55:00,2.8,-2.0,30.06,NW,315,0.0,0.0,80,0.00,,,0.00,VWS V14.01,2013-02-05 12:55:00,
2013-02-05 08:00:00,2.8,-1.7,30.06,NW,315,0.0,0.0,81,0.00,,,0.00,VWS V14.01,2013-02-05 13:00:00,
2013-02-05 08:05:00,2.8,-1.7,30.06,NW,315,0.0,0.0,81,0.00,,,0.00,VWS V14.01,2013-02-05 13:05:00,
2013-02-05 08:10:00,2.9,-1.9,30.06,NW,315,0.0,0.0,80,0.00,,,0.00,VWS V14.01,2013-02-05 13:10:00,
2013-02-05 08:15:00,2.9,-1.9,30.06,NW,315,0.0,0.0,80,0.00,,,0.00,VWS V14.01,2013-02-05 13:15:00,
2013-02-05 08:20:00,2.9,-1.9,30.06,NW,315,0.0,0.0,80,0.00,,,0.00,VWS V14.01,2013-02-05 13:20:00,
2013-02-05 08:25:00,2.9,-1.6,30.07,NW,315,0.0,0.0,81,0.00,,,0.00,VWS V14.01,2013-02-05 13:25:00,
2013-02-05 08:30:00,3.0,-1.5,30.07,NW,315,0.0,0.0,81,0.00,,,0.00,VWS V14.01,2013-02-05 13:30:00,
2013-02-05 08:35:00,3.0,-1.5,30.07,NW,315,0.0,0.0,81,0.00,,,0.00,VWS V14.01,2013-02-05 13:35:00,
2013-02-05 08:40:00,3.1,-1.4,30.07,NW,315,0.0,0.0,81,0.00,,,0.00,VWS V14.01,2013-02-05 13:40:00,
2013-02-05 08:45:00,3.3,-1.2,30.07,NW,315,0.0,0.0,81,0.00,,,0.00,VWS V14.01,2013-02-05 13:45:00,
2013-02-05 08:50:00,3.5,-0.8,30.07,NW,315,0.0,0.0,82,0.00,,,0.00,VWS V14.01,2013-02-05 13:50:00,
2013-02-05 08:55:00,3.8,-0.5,30.07,NW,315,0.0,0.0,82,0.00,,,0.00,VWS V14.01,2013-02-05 13:55:00,
2013-02-05 09:00:00,4.1,-0.4,30.07,NW,315,0.0,0.0,81,0.00,,,0.00,VWS V14.01,2013-02-05 14:00:00,
2013-02-05 09:05:00,4.4,-0.4,30.07,NW,315,0.0,0.0,80,0.00,,,0.00,VWS V14.01,2013-02-05 14:05:00,
2013-02-05 09:10:00,4.7,-0.1,30.08,NW,315,0.0,0.0,80,0.00,,,0.00,VWS V14.01,2013-02-05 14:10:00,
2013-02-05 09:15:00,5.3,0.2,30.07,NW,315,0.0,0.0,79,0.00,,,0.00,VWS V14.01,2013-02-05 14:15:00,
2013-02-05 09:20:00,6.1,1.0,30.08,NW,315,0.0,2.0,79,0.00,,,0.00,VWS V14.01,2013-02-05 14:20:00,
2013-02-05 09:25:00,7.1,1.4,30.08,NW,315,1.0,2.0,77,0.00,,,0.00,VWS V14.01,2013-02-05 14:25:00,
2013-02-05 09:30:00,7.9,2.2,30.08,NW,315,0.0,2.0,77,0.00,,,0.00,VWS V14.01,2013-02-05 14:30:00,
2013-02-05 09:35:00,8.8,2.5,30.08,NW,315,1.0,3.0,75,0.00,,,0.00,VWS V14.01,2013-02-05 14:35:00,
2013-02-05 09:40:00,9.2,2.6,30.08,NW,315,1.0,2.0,74,0.00,,,0.00,VWS V14.01,2013-02-05 14:40:00,
2013-02-05 09:45:00,9.7,2.8,30.08,NW,315,0.0,2.0,73,0.00,,,0.00,VWS V14.01,2013-02-05 14:45:00,
2013-02-05 09:50:00,10.4,3.2,30.08,NW,315,0.0,0.0,72,0.00,,,0.00,VWS V14.01,2013-02-05 14:50:00,
2013-02-05 09:55:00,10.8,3.3,30.08,NW,315,0.0,2.0,71,0.00,,,0.00,VWS V14.01,2013-02-05 14:55:00,
2013-02-05 10:00:00,11.3,2.8,30.08,NW,315,2.0,5.0,68,0.00,,,0.00,VWS V14.01,2013-02-05 15:00:00,
2013-02-05 10:05:00,11.6,3.4,30.08,ENE,68,1.0,3.0,69,0.00,,,0.00,VWS V14.01,2013-02-05 15:05:00,
2013-02-05 10:10:00,12.0,2.8,30.08,ENE,68,2.0,4.0,66,0.00,,,0.00,VWS V14.01,2013-02-05 15:10:00,
2013-02-05 10:15:00,11.9,3.1,30.08,ENE,68,1.0,3.0,67,0.00,,,0.00,VWS V14.01,2013-02-05 15:15:00,
2013-02-05 10:20:00,12.3,3.5,30.08,ENE,68,1.0,4.0,67,0.00,,,0.00,VWS V14.01,2013-02-05 15:20:00,
2013-02-05 10:25:00,12.9,3.7,30.08,NNW,338,1.0,4.0,66,0.00,,,0.00,VWS V14.01,2013-02-05 15:25:00,
2013-02-05 10:30:00,13.6,3.7,30.08,NNW,338,1.0,3.0,64,0.00,,,0.00,VWS V14.01,2013-02-05 15:30:00,
2013-02-05 10:35:00,14.0,3.7,30.08,ESE,112,1.0,4.0,63,0.00,,,0.00,VWS V14.01,2013-02-05 15:35:00,
2013-02-05 10:40:00,14.3,3.7,30.08,SW,225,0.0,3.0,62,0.00,,,0.00,VWS V14.01,2013-02-05 15:40:00,
2013-02-05 10:45:00,14.7,3.7,30.07,East,90,3.0,9.0,61,0.00,,,0.00,VWS V14.01,2013-02-05 15:45:00,
2013-02-05 10:50:00,14.2,2.9,30.08,SE,135,1.0,4.0,60,0.00,,,0.00,VWS V14.01,2013-02-05 15:50:00,
2013-02-05 10:55:00,14.1,2.8,30.07,East,90,2.0,5.0,60,0.00,,,0.00,VWS V14.01,2013-02-05 15:55:00,
2013-02-05 11:00:00,14.0,2.3,30.07,East,90,3.0,6.0,59,0.00,,,0.00,VWS V14.01,2013-02-05 16:00:00,
2013-02-05 11:05:00,14.0,2.7,30.07,East,90,1.0,5.0,60,0.00,,,0.00,VWS V14.01,2013-02-05 16:05:00,
2013-02-05 11:10:00,14.5,3.2,30.07,ESE,112,2.0,4.0,60,0.00,,,0.00,VWS V14.01,2013-02-05 16:10:00,
2013-02-05 11:15:00,15.0,2.9,30.07,East,90,3.0,9.0,58,0.00,,,0.00,VWS V14.01,2013-02-05 16:15:00,
2013-02-05 11:20:00,15.1,3.4,30.06,East,90,1.0,6.0,59,0.00,,,0.00,VWS V14.01,2013-02-05 16:20:00,
2013-02-05 11:25:00,15.3,2.8,30.06,East,90,3.0,7.0,57,0.00,,,0.00,VWS V14.01,2013-02-05 16:25:00,
2013-02-05 11:30:00,15.2,2.7,30.06,East,90,1.0,3.0,57,0.00,,,0.00,VWS V14.01,2013-02-05 16:30:00,
2013-02-05 11:35:00,15.6,3.1,30.05,East,90,2.0,6.0,57,0.00,,,0.00,VWS V14.01,2013-02-05 16:35:00,
2013-02-05 11:40:00,16.0,2.7,30.04,East,90,2.0,5.0,55,0.00,,,0.00,VWS V14.01,2013-02-05 16:40:00,
2013-02-05 11:45:00,16.0,3.1,30.04,East,90,3.0,5.0,56,0.00,,,0.00,VWS V14.01,2013-02-05 16:45:00,
2013-02-05 11:50:00,16.0,3.1,30.04,East,90,3.0,6.0,56,0.00,,,0.00,VWS V14.01,2013-02-05 16:50:00,
2013-02-05 11:55:00,16.1,3.2,30.04,East,90,2.0,7.0,56,0.00,,,0.00,VWS V14.01,2013-02-05 16:55:00,
2013-02-05 12:00:00,16.3,3.4,30.04,ESE,112,2.0,5.0,56,0.00,,,0.00,VWS V14.01,2013-02-05 17:00:00,
2013-02-05 12:05:00,16.4,2.7,30.04,East,90,2.0,5.0,54,0.00,,,0.00,VWS V14.01,2013-02-05 17:05:00,
2013-02-05 12:10:00,16.6,3.7,30.04,ENE,68,2.0,4.0,56,0.00,,,0.00,VWS V14.01,2013-02-05 17:10:00,
2013-02-05 12:15:00,16.9,3.5,30.03,ENE,68,4.0,7.0,55,0.00,,,0.00,VWS V14.01,2013-02-05 17:15:00,
2013-02-05 12:20:00,17.3,3.1,30.03,NE,45,0.0,3.0,53,0.00,,,0.00,VWS V14.01,2013-02-05 17:20:00,
2013-02-05 12:25:00,17.7,3.5,30.03,ESE,112,2.0,6.0,53,0.00,,,0.00,VWS V14.01,2013-02-05 17:25:00,
2013-02-05 12:30:00,18.1,3.9,30.03,ESE,112,2.0,7.0,53,0.00,,,0.00,VWS V14.01,2013-02-05 17:30:00,
2013-02-05 12:35:00,18.4,3.7,30.03,East,90,4.0,7.0,52,0.00,,,0.00,VWS V14.01,2013-02-05 17:35:00,
2013-02-05 12:40:00,18.4,4.1,30.03,ESE,112,1.0,5.0,53,0.00,,,0.00,VWS V14.01,2013-02-05 17:40:00,
2013-02-05 12:45:00,18.9,4.2,30.02,SE,135,1.0,6.0,52,0.00,,,0.00,VWS V14.01,2013-02-05 17:45:00,
2013-02-05 12:50:00,19.1,3.5,30.02,East,90,5.0,9.0,50,0.00,,,0.00,VWS V14.01,2013-02-05 17:50:00,
2013-02-05 12:55:00,18.8,3.7,30.02,ESE,112,2.0,6.0,51,0.00,,,0.00,VWS V14.01,2013-02-05 17:55:00,
2013-02-05 13:00:00,19.3,3.7,30.02,East,90,2.0,7.0,50,0.00,,,0.00,VWS V14.01,2013-02-05 18:00:00,
2013-02-05 13:05:00,19.7,4.1,30.02,North,0,3.0,5.0,50,0.00,,,0.00,VWS V14.01,2013-02-05 18:05:00,
2013-02-05 13:10:00,19.8,3.7,30.02,East,90,2.0,6.0,49,0.00,,,0.00,VWS V14.01,2013-02-05 18:10:00,
2013-02-05 13:15:00,19.7,4.1,30.01,NW,315,1.0,3.0,50,0.00,,,0.00,VWS V14.01,2013-02-05 18:15:00,
2013-02-05 13:20:00,19.8,4.6,30.01,ENE,68,2.0,4.0,51,0.00,,,0.00,VWS V14.01,2013-02-05 18:20:00,
2013-02-05 13:25:00,20.0,4.4,30.01,ESE,112,3.0,6.0,50,0.00,,,0.00,VWS V14.01,2013-02-05 18:25:00,
2013-02-05 13:30:00,20.2,5.0,30.01,South,180,1.0,4.0,51,0.00,,,0.00,VWS V14.01,2013-02-05 18:30:00,
2013-02-05 13:35:00,20.5,4.8,30.01,SE,135,1.0,4.0,50,0.00,,,0.00,VWS V14.01,2013-02-05 18:35:00,
2013-02-05 13:40:00,20.6,4.5,30.01,WNW,292,2.0,5.0,49,0.00,,,0.00,VWS V14.01,2013-02-05 18:40:00,
2013-02-05 13:45:00,20.4,4.3,30.00,NW,315,2.0,6.0,49,0.00,,,0.00,VWS V14.01,2013-02-05 18:45:00,
2013-02-05 13:50:00,20.4,3.8,30.00,WSW,248,1.0,4.0,48,0.00,,,0.00,VWS V14.01,2013-02-05 18:50:00,
2013-02-05 13:55:00,20.9,4.3,30.00,ESE,112,3.0,7.0,48,0.00,,,0.00,VWS V14.01,2013-02-05 18:55:00,
2013-02-05 14:00:00,21.4,4.8,30.00,ESE,112,2.0,5.0,48,0.00,,,0.00,VWS V14.01,2013-02-05 19:00:00,
2013-02-05 14:05:00,21.7,4.6,29.99,ESE,112,0.0,2.0,47,0.00,,,0.00,VWS V14.01,2013-02-05 19:05:00,
2013-02-05 14:10:00,22.1,4.5,29.99,ESE,112,3.0,10.0,46,0.00,,,0.00,VWS V14.01,2013-02-05 19:10:00,
2013-02-05 14:15:00,22.3,4.7,29.99,ESE,112,2.0,4.0,46,0.00,,,0.00,VWS V14.01,2013-02-05 19:15:00,
2013-02-05 14:20:00,22.4,4.8,29.99,SSE,158,1.0,3.0,46,0.00,,,0.00,VWS V14.01,2013-02-05 19:20:00,
2013-02-05 14:25:00,22.2,5.1,29.99,East,90,2.0,5.0,47,0.00,,,0.00,VWS V14.01,2013-02-05 19:25:00,
2013-02-05 14:30:00,22.0,4.9,29.99,NE,45,2.0,4.0,47,0.00,,,0.00,VWS V14.01,2013-02-05 19:30:00,
2013-02-05 14:35:00,22.1,4.5,29.99,WNW,292,3.0,7.0,46,0.00,,,0.00,VWS V14.01,2013-02-05 19:35:00,
2013-02-05 14:40:00,21.9,4.8,29.99,East,90,4.0,10.0,47,0.00,,,0.00,VWS V14.01,2013-02-05 19:40:00,
2013-02-05 14:45:00,22.1,4.5,29.98,NE,45,2.0,5.0,46,0.00,,,0.00,VWS V14.01,2013-02-05 19:45:00,
2013-02-05 14:50:00,22.5,4.4,29.98,WSW,248,3.0,7.0,45,0.00,,,0.00,VWS V14.01,2013-02-05 19:50:00,
2013-02-05 14:55:00,22.6,4.5,29.98,East,90,2.0,7.0,45,0.00,,,0.00,VWS V14.01,2013-02-05 19:55:00,
2013-02-05 15:00:00,22.8,4.7,29.98,East,90,3.0,7.0,45,0.00,,,0.00,VWS V14.01,2013-02-05 20:00:00,
2013-02-05 15:05:00,22.8,4.7,29.98,ESE,112,3.0,6.0,45,0.00,,,0.00,VWS V14.01,2013-02-05 20:05:00,
2013-02-05 15:10:00,22.8,4.7,29.98,East,90,2.0,6.0,45,0.00,,,0.00,VWS V14.01,2013-02-05 20:10:00,
2013-02-05 15:15:00,22.8,4.7,29.98,East,90,2.0,6.0,45,0.00,,,0.00,VWS V14.01,2013-02-05 20:15:00,
2013-02-05 15:20:00,22.9,5.2,29.98,East,90,1.0,4.0,46,0.00,,,0.00,VWS V14.01,2013-02-05 20:20:00,
2013-02-05 15:25:00,23.2,6.0,29.98,East,90,0.0,2.0,47,0.00,,,0.00,VWS V14.01,2013-02-05 20:25:00,
2013-02-05 15:30:00,23.3,4.6,29.98,East,90,2.0,5.0,44,0.00,,,0.00,VWS V14.01,2013-02-05 20:30:00,
2013-02-05 15:35:00,23.4,4.7,29.98,ESE,112,1.0,4.0,44,0.00,,,0.00,VWS V14.01,2013-02-05 20:35:00,
2013-02-05 15:40:00,23.6,4.9,29.98,East,90,2.0,5.0,44,0.00,,,0.00,VWS V14.01,2013-02-05 20:40:00,
2013-02-05 15:45:00,23.6,4.9,29.97,ESE,112,3.0,5.0,44,0.00,,,0.00,VWS V14.01,2013-02-05 20:45:00,
2013-02-05 15:50:00,23.5,4.8,29.98,East,90,3.0,6.0,44,0.00,,,0.00,VWS V14.01,2013-02-05 20:50:00,
2013-02-05 15:55:00,23.2,4.5,29.97,East,90,2.0,4.0,44,0.00,,,0.00,VWS V14.01,2013-02-05 20:55:00,
2013-02-05 16:00:00,23.1,4.9,29.97,East,90,1.0,4.0,45,0.00,,,0.00,VWS V14.01,2013-02-05 21:00:00,
2013-02-05 16:05:00,23.0,4.8,29.98,East,90,2.0,5.0,45,0.00,,,0.00,VWS V14.01,2013-02-05 21:05:00,
2013-02-05 16:10:00,22.9,4.3,29.98,East,90,1.0,5.0,44,0.00,,,0.00,VWS V14.01,2013-02-05 21:10:00,
2013-02-05 16:15:00,22.9,4.3,29.98,East,90,1.0,3.0,44,0.00,,,0.00,VWS V14.01,2013-02-05 21:15:00,
2013-02-05 16:20:00,23.0,4.8,29.98,East,90,1.0,4.0,45,0.00,,,0.00,VWS V14.01,2013-02-05 21:20:00,
2013-02-05 16:25:00,22.9,4.8,29.98,East,90,3.0,6.0,45,0.00,,,0.00,VWS V14.01,2013-02-05 21:25:00,
2013-02-05 16:30:00,22.7,4.6,29.98,East,90,1.0,4.0,45,0.00,,,0.00,VWS V14.01,2013-02-05 21:30:00,
2013-02-05 16:35:00,22.5,4.9,29.98,NE,45,0.0,3.0,46,0.00,,,0.00,VWS V14.01,2013-02-05 21:35:00,
2013-02-05 16:40:00,22.4,4.8,29.98,NE,45,1.0,3.0,46,0.00,,,0.00,VWS V14.01,2013-02-05 21:40:00,
2013-02-05 16:45:00,22.2,4.6,29.98,ESE,112,3.0,4.0,46,0.00,,,0.00,VWS V14.01,2013-02-05 21:45:00,
2013-02-05 16:50:00,22.1,5.0,29.98,East,90,1.0,2.0,47,0.00,,,0.00,VWS V14.01,2013-02-05 21:50:00,
2013-02-05 16:55:00,21.9,5.7,29.97,East,90,0.0,1.0,49,0.00,,,0.00,VWS V14.01,2013-02-05 21:55:00,
2013-02-05 17:00:00,21.6,6.3,29.97,East,90,0.0,0.0,51,0.00,,,0.00,VWS V14.01,2013-02-05 22:00:00,
2013-02-05 17:05:00,21.2,5.9,29.97,East,90,0.0,0.0,51,0.00,,,0.00,VWS V14.01,2013-02-05 22:05:00,
2013-02-05 17:10:00,20.7,5.4,29.97,East,90,0.0,2.0,51,0.00,,,0.00,VWS V14.01,2013-02-05 22:10:00,
2013-02-05 17:15:00,20.3,6.3,29.97,East,90,0.0,2.0,54,0.00,,,0.00,VWS V14.01,2013-02-05 22:15:00,
2013-02-05 17:20:00,19.9,6.8,29.96,East,90,1.0,2.0,56,0.00,,,0.00,VWS V14.01,2013-02-05 22:20:00,
2013-02-05 17:25:00,19.7,7.3,29.96,East,90,1.0,2.0,58,0.00,,,0.00,VWS V14.01,2013-02-05 22:25:00,
2013-02-05 17:30:00,19.5,7.5,29.96,East,90,1.0,2.0,59,0.00,,,0.00,VWS V14.01,2013-02-05 22:30:00,
2013-02-05 17:35:00,19.4,7.8,29.96,East,90,2.0,3.0,60,0.00,,,0.00,VWS V14.01,2013-02-05 22:35:00,
2013-02-05 17:40:00,19.3,7.3,29.95,East,90,0.0,1.0,59,0.00,,,0.00,VWS V14.01,2013-02-05 22:40:00,
2013-02-05 17:45:00,19.3,7.7,29.95,East,90,0.0,1.0,60,0.00,,,0.00,VWS V14.01,2013-02-05 22:45:00,
2013-02-05 17:50:00,19.4,8.2,29.95,East,90,0.0,0.0,61,0.00,,,0.00,VWS V14.01,2013-02-05 22:50:00,
2013-02-05 17:55:00,19.4,8.5,29.95,East,90,0.0,0.0,62,0.00,,,0.00,VWS V14.01,2013-02-05 22:55:00,
2013-02-05 18:00:00,19.4,8.9,29.95,East,90,0.0,0.0,63,0.00,,,0.00,VWS V14.01,2013-02-05 23:00:00,
2013-02-05 18:05:00,19.4,10.6,29.95,East,90,0.0,0.0,68,0.00,,,0.00,VWS V14.01,2013-02-05 23:05:00,
2013-02-05 18:10:00,19.4,8.5,29.94,East,90,0.0,0.0,62,0.00,,,0.00,VWS V14.01,2013-02-05 23:10:00,
2013-02-05 18:15:00,19.4,8.9,29.95,East,90,0.0,0.0,63,0.00,,,0.00,VWS V14.01,2013-02-05 23:15:00,
2013-02-05 18:20:00,19.4,8.5,29.94,East,90,0.0,0.0,62,0.00,,,0.00,VWS V14.01,2013-02-05 23:20:00,
2013-02-05 18:25:00,19.4,8.5,29.94,East,90,0.0,0.0,62,0.00,,,0.00,VWS V14.01,2013-02-05 23:25:00,
2013-02-05 18:30:00,19.4,10.2,29.95,East,90,0.0,0.0,67,0.00,,,0.00,VWS V14.01,2013-02-05 23:30:00,
2013-02-05 18:35:00,19.4,8.9,29.95,East,90,0.0,0.0,63,0.00,,,0.00,VWS V14.01,2013-02-05 23:35:00,
2013-02-05 18:40:00,19.5,8.6,29.95,East,90,0.0,0.0,62,0.00,,,0.00,VWS V14.01,2013-02-05 23:40:00,
2013-02-05 18:45:00,19.5,9.0,29.95,East,90,0.0,0.0,63,0.00,,,0.00,VWS V14.01,2013-02-05 23:45:00,
2013-02-05 18:50:00,20.1,10.6,29.95,NNE,16,0.0,2.0,66,0.00,,,0.00,VWS V14.01,2013-02-05 23:50:00,
2013-02-05 18:55:00,20.1,9.5,29.95,NNE,15,0.0,2.0,63,0.00,,,0.00,VWS V14.01,2013-02-05 23:55:00,
2013-02-05 18:58:00,19.5,9.0,29.95,East,90,0.0,0.0,63,0.00,,,0.00,VWS V14.01,2013-02-05 23:58:00,
2013-02-05 18:59:00,19.7,9.2,29.96,ESE,115,0.0,0.0,63,0.00,,,0.00,VWS V14.01,2013-02-05 23:59:00,
2013-02-05 19:00:00,19.7,9.5,29.96,ESE,115,0.0,0.0,64,0.00,,,0.00,VWS V14.01,2013-02-06 00:00:00,
2013-02-05 19:03:00,19.7,9.9,29.96,ESE,115,0.0,0.0,65,0.00,,,0.00,VWS V14.01,2013-02-06 00:03:00,
2013-02-05 19:04:00,19.7,9.9,29.96,ESE,115,0.0,0.0,65,0.00,,,0.00,VWS V14.01,2013-02-06 00:04:00,
2013-02-05 19:05:00,19.9,10.4,29.96,ESE,115,0.0,0.0,66,0.00,,,0.00,VWS V14.01,2013-02-06 00:05:00,
2013-02-05 19:09:00,20.1,9.5,29.96,ESE,115,0.0,0.0,63,0.00,,,0.00,VWS V14.01,2013-02-06 00:09:00,
2013-02-05 19:10:00,20.2,9.3,29.96,ESE,114,0.0,0.0,62,0.00,,,0.00,VWS V14.01,2013-02-06 00:10:00,
2013-02-05 19:14:00,20.2,9.3,29.96,ESE,114,0.0,0.0,62,0.00,,,0.00,VWS V14.01,2013-02-06 00:14:00,
2013-02-05 19:15:00,20.2,9.3,29.96,ESE,114,0.0,0.0,62,0.00,,,0.00,VWS V14.01,2013-02-06 00:15:00,
2013-02-05 19:19:00,20.3,9.0,29.96,ESE,115,0.0,0.0,61,0.00,,,0.00,VWS V14.01,2013-02-06 00:19:00,
2013-02-05 19:20:00,20.4,8.7,29.96,ESE,115,0.0,0.0,60,0.00,,,0.00,VWS V14.01,2013-02-06 00:20:00,
2013-02-05 19:24:00,20.5,8.1,29.96,ESE,115,0.0,0.0,58,0.00,,,0.00,VWS V14.01,2013-02-06 00:24:00,
2013-02-05 19:25:00,20.5,7.7,29.96,ESE,115,0.0,0.0,57,0.00,,,0.00,VWS V14.01,2013-02-06 00:25:00,
2013-02-05 19:29:00,20.6,8.9,29.96,ESE,115,0.0,0.0,60,0.00,,,0.00,VWS V14.01,2013-02-06 00:29:00,
2013-02-05 19:30:00,20.6,9.7,29.95,ESE,115,0.0,0.0,62,0.00,,,0.00,VWS V14.01,2013-02-06 00:30:00,
2013-02-05 19:34:00,20.5,9.9,29.95,ESE,115,0.0,0.0,63,0.00,,,0.00,VWS V14.01,2013-02-06 00:34:00,
2013-02-05 19:35:00,20.5,10.3,29.96,ESE,114,0.0,0.0,64,0.00,,,0.00,VWS V14.01,2013-02-06 00:35:00,
2013-02-05 19:39:00,20.4,10.9,29.96,ESE,115,0.0,0.0,66,0.00,,,0.00,VWS V14.01,2013-02-06 00:39:00,
2013-02-05 19:40:00,20.4,10.9,29.95,ESE,115,0.0,0.0,66,0.00,,,0.00,VWS V14.01,2013-02-06 00:40:00,
2013-02-05 19:44:00,20.2,11.0,29.95,ESE,115,0.0,0.0,67,0.00,,,0.00,VWS V14.01,2013-02-06 00:44:00,
2013-02-05 19:45:00,20.2,11.0,29.95,ESE,115,0.0,0.0,67,0.00,,,0.00,VWS V14.01,2013-02-06 00:45:00,
2013-02-05 19:49:00,20.1,11.2,29.95,NNE,16,0.0,2.0,68,0.00,,,0.00,VWS V14.01,2013-02-06 00:49:00,
2013-02-05 19:50:00,20.1,11.2,29.95,NNE,16,1.0,2.0,68,0.00,,,0.00,VWS V14.01,2013-02-06 00:50:00,
2013-02-05 19:54:00,20.1,9.9,29.95,NNE,15,0.0,2.0,64,0.00,,,0.00,VWS V14.01,2013-02-06 00:54:00,
2013-02-05 19:55:00,20.1,9.9,29.95,NNE,16,0.0,2.0,64,0.00,,,0.00,VWS V14.01,2013-02-06 00:55:00,
2013-02-05 19:59:00,20.1,8.5,29.95,NNE,16,0.0,2.0,60,0.00,,,0.00,VWS V14.01,2013-02-06 00:59:00,
2013-02-05 20:00:00,20.2,8.6,29.95,NNE,16,0.0,2.0,60,0.00,,,0.00,VWS V14.01,2013-02-06 01:00:00,
2013-02-05 20:01:00,20.2,8.6,29.95,NNE,16,0.0,2.0,60,0.00,,,0.00,VWS V14.01,2013-02-06 01:01:00,
2013-02-05 20:04:00,20.2,8.2,29.95,NNE,16,3.0,3.0,59,0.00,,,0.00,VWS V14.01,2013-02-06 01:04:00,
2013-02-05 20:05:00,20.2,7.8,29.95,NNE,15,2.0,4.0,58,0.00,,,0.00,VWS V14.01,2013-02-06 01:05:00,
2013-02-05 20:06:00,20.2,7.8,29.95,NNE,15,1.0,4.0,58,0.00,,,0.00,VWS V14.01,2013-02-06 01:06:00,
2013-02-05 20:10:00,20.3,7.5,29.95,NNE,15,0.0,2.0,57,0.00,,,0.00,VWS V14.01,2013-02-06 01:10:00,
2013-02-05 20:15:00,20.4,8.7,29.95,NNE,22,0.0,2.0,60,0.00,,,0.00,VWS V14.01,2013-02-06 01:15:00,
2013-02-05 20:20:00,20.4,9.1,29.95,NNE,22,0.0,2.0,61,0.00,,,0.00,VWS V14.01,2013-02-06 01:20:00,
2013-02-05 20:25:00,20.2,9.3,29.95,NNE,22,0.0,2.0,62,0.00,,,0.00,VWS V14.01,2013-02-06 01:25:00,
2013-02-05 20:30:00,20.0,9.1,29.95,NE,45,0.0,3.0,62,0.00,,,0.00,VWS V14.01,2013-02-06 01:30:00,
2013-02-05 20:35:00,19.9,9.7,29.95,NE,45,0.0,0.0,64,0.00,,,0.00,VWS V14.01,2013-02-06 01:35:00,
2013-02-05 20:40:00,19.7,9.9,29.95,NE,45,0.0,0.0,65,0.00,,,0.00,VWS V14.01,2013-02-06 01:40:00,
2013-02-05 20:45:00,19.7,10.5,29.95,NE,45,0.0,0.0,67,0.00,,,0.00,VWS V14.01,2013-02-06 01:45:00,
2013-02-05 20:50:00,19.2,10.4,29.95,NE,45,0.0,0.0,68,0.00,,,0.00,VWS V14.01,2013-02-06 01:50:00,
2013-02-05 20:54:00,19.7,10.5,29.95,NE,45,0.0,0.0,67,0.00,,,0.00,VWS V14.01,2013-02-06 01:54:00,
2013-02-05 20:55:00,19.6,10.4,29.95,NE,37,0.0,0.0,67,0.00,,,0.00,VWS V14.01,2013-02-06 01:55:00,
2013-02-05 20:59:00,19.5,10.3,29.95,NE,37,0.0,0.0,67,0.00,,,0.00,VWS V14.01,2013-02-06 01:59:00,
2013-02-05 21:00:00,19.4,9.9,29.95,NE,37,0.0,0.0,66,0.00,,,0.00,VWS V14.01,2013-02-06 02:00:00,
2013-02-05 21:04:00,19.4,9.9,29.95,NE,37,0.0,0.0,66,0.00,,,0.00,VWS V14.01,2013-02-06 02:04:00,
2013-02-05 21:05:00,19.4,9.6,29.95,NE,37,0.0,0.0,65,0.00,,,0.00,VWS V14.01,2013-02-06 02:05:00,
2013-02-05 21:09:00,19.4,11.2,29.95,NE,37,0.0,0.0,70,0.00,,,0.00,VWS V14.01,2013-02-06 02:09:00,
2013-02-05 21:10:00,19.4,9.2,29.95,NE,37,0.0,0.0,64,0.00,,,0.00,VWS V14.01,2013-02-06 02:10:00,
2013-02-05 21:14:00,19.4,9.6,29.95,NE,37,0.0,0.0,65,0.00,,,0.00,VWS V14.01,2013-02-06 02:14:00,
2013-02-05 21:15:00,19.4,9.6,29.95,NE,37,0.0,0.0,65,0.00,,,0.00,VWS V14.01,2013-02-06 02:15:00,
2013-02-05 21:20:00,19.4,9.2,29.95,North,0,0.0,0.0,64,0.00,,,0.00,VWS V14.01,2013-02-06 02:20:00,
2013-02-05 21:25:00,19.3,9.5,29.95,North,0,0.0,0.0,65,0.00,,,0.00,VWS V14.01,2013-02-06 02:25:00,
2013-02-05 21:30:00,19.3,10.1,29.96,North,0,0.0,0.0,67,0.00,,,0.00,VWS V14.01,2013-02-06 02:30:00,
2013-02-05 21:35:00,19.3,10.5,29.95,North,0,0.0,0.0,68,0.00,,,0.00,VWS V14.01,2013-02-06 02:35:00,
2013-02-05 21:40:00,19.2,10.4,29.95,NE,45,0.0,2.0,68,0.00,,,0.00,VWS V14.01,2013-02-06 02:40:00,
2013-02-05 21:45:00,19.2,10.4,29.95,NE,45,0.0,0.0,68,0.00,,,0.00,VWS V14.01,2013-02-06 02:45:00,
2013-02-05 21:50:00,19.2,10.4,29.95,NE,45,0.0,0.0,68,0.00,,,0.00,VWS V14.01,2013-02-06 02:50:00,
2013-02-05 21:55:00,19.2,10.7,29.96,NE,45,0.0,0.0,69,0.00,,,0.00,VWS V14.01,2013-02-06 02:55:00,
2013-02-05 22:00:00,19.3,10.8,29.96,NE,45,0.0,1.0,69,0.00,,,0.00,VWS V14.01,2013-02-06 03:00:00,
2013-02-05 22:05:00,19.3,10.1,29.96,NE,45,0.0,0.0,67,0.00,,,0.00,VWS V14.01,2013-02-06 03:05:00,
2013-02-05 22:10:00,19.2,10.1,29.96,NE,45,0.0,0.0,67,0.00,,,0.00,VWS V14.01,2013-02-06 03:10:00,
2013-02-05 22:15:00,19.2,10.4,29.96,NE,45,0.0,0.0,68,0.00,,,0.00,VWS V14.01,2013-02-06 03:15:00,
2013-02-05 22:20:00,19.2,10.4,29.96,NE,45,0.0,0.0,68,0.00,,,0.00,VWS V14.01,2013-02-06 03:20:00,
2013-02-05 22:25:00,19.2,10.4,29.96,NE,45,0.0,0.0,68,0.00,,,0.00,VWS V14.01,2013-02-06 03:25:00,
2013-02-05 22:30:00,19.2,10.4,29.96,NE,45,0.0,2.0,68,0.00,,,0.00,VWS V14.01,2013-02-06 03:30:00,
2013-02-05 22:35:00,19.1,10.3,29.95,NE,45,0.0,2.0,68,0.00,,,0.00,VWS V14.01,2013-02-06 03:35:00,
2013-02-05 22:40:00,19.0,10.5,29.95,NE,45,0.0,0.0,69,0.00,,,0.00,VWS V14.01,2013-02-06 03:40:00,
2013-02-05 22:45:00,19.0,10.5,29.95,NE,45,0.0,0.0,69,0.00,,,0.00,VWS V14.01,2013-02-06 03:45:00,
2013-02-05 22:50:00,19.1,10.6,29.94,NE,45,0.0,0.0,69,0.00,,,0.00,VWS V14.01,2013-02-06 03:50:00,
2013-02-05 22:55:00,19.1,10.6,29.94,NE,45,0.0,0.0,69,0.00,,,0.00,VWS V14.01,2013-02-06 03:55:00,
2013-02-05 23:00:00,19.2,11.0,29.94,NE,45,0.0,0.0,70,0.00,,,0.00,VWS V14.01,2013-02-06 04:00:00,
2013-02-05 23:05:00,19.2,11.0,29.94,NE,45,0.0,0.0,70,0.00,,,0.00,VWS V14.01,2013-02-06 04:05:00,
2013-02-05 23:10:00,19.2,11.0,29.94,NE,45,0.0,0.0,70,0.00,,,0.00,VWS V14.01,2013-02-06 04:10:00,
2013-02-05 23:15:00,19.2,11.0,29.94,NE,45,0.0,1.0,70,0.00,,,0.00,VWS V14.01,2013-02-06 04:15:00,
2013-02-05 23:20:00,19.2,11.4,29.94,NE,45,0.0,0.0,71,0.00,,,0.00,VWS V14.01,2013-02-06 04:20:00,
2013-02-05 23:25:00,19.2,11.4,29.94,NE,45,0.0,0.0,71,0.00,,,0.00,VWS V14.01,2013-02-06 04:25:00,
2013-02-05 23:30:00,19.3,11.4,29.94,NE,45,0.0,0.0,71,0.00,,,0.00,VWS V14.01,2013-02-06 04:30:00,
2013-02-05 23:35:00,19.4,13.7,29.94,NE,45,0.0,1.0,78,0.00,,,0.00,VWS V14.01,2013-02-06 04:35:00,
2013-02-05 23:40:00,19.4,11.6,29.94,NE,45,0.0,0.0,71,0.00,,,0.00,VWS V14.01,2013-02-06 04:40:00,
2013-02-05 23:45:00,19.4,11.6,29.94,NE,45,0.0,0.0,71,0.00,,,0.00,VWS V14.01,2013-02-06 04:45:00,
2013-02-05 23:50:00,19.4,11.9,29.94,NE,45,0.0,2.0,72,0.00,,,0.00,VWS V14.01,2013-02-06 04:50:00,
2013-02-05 23:55:00,19.4,11.6,29.94,NE,45,0.0,2.0,71,0.00,,,0.00,VWS V14.01,2013-02-06 04:55:00,